Location: Newark
(49.8969°N, 3.3422°E)
Time: 08:29:40
(UTC+00:00)

Tiros 1 - Visible Passes

Search period start: 18 January 2020 00:00
Search period end: 28 January 2020 00:00
Orbit: 630 x 664 km, 48.4° (Epoch: 18 January)

Date Brightness Start Highest point End Pass type
(mag) Time Alt. Az. Time Alt. Az. Time Alt. Az.
18 Jan 7.2 18:08:01 10° W 18:12:48 75° S 18:14:51 34° ESE visible
18 Jan 9.2 19:50:12 10° W 19:52:31 26° W 19:52:31 26° W visible
19 Jan 7.4 16:51:57 10° WSW 16:56:43 72° S 17:01:30 10° E visible
19 Jan 7.4 18:34:04 10° W 18:38:49 65° SSW 18:39:55 49° SE visible
19 Jan 9.9 20:16:27 10° W 20:17:35 16° W 20:17:35 16° W visible
20 Jan 7.3 17:17:58 10° W 17:22:45 75° S 17:27:22 11° E visible
20 Jan 7.8 19:00:09 10° W 19:04:45 47° SSW 19:05:03 47° S visible
21 Jan 7.5 17:44:01 10° W 17:48:46 66° SSW 17:52:35 16° ESE visible
21 Jan 8.7 19:26:22 10° W 19:30:16 30° SW 19:30:16 30° SW visible
22 Jan 7.9 18:10:05 10° W 18:14:43 49° SSW 18:17:54 19° SE visible
22 Jan 9.5 19:53:01 10° W 19:55:35 17° SW 19:55:35 17° SW visible
23 Jan 7.5 16:53:58 10° W 16:58:43 68° S 17:03:29 10° ESE visible
23 Jan 8.7 18:36:17 10° W 18:40:32 32° SSW 18:43:21 18° SSE visible
24 Jan 8.0 17:20:02 10° W 17:24:40 51° SSW 17:29:19 10° SE visible
24 Jan 9.5 19:02:51 10° W 19:06:11 19° SW 19:09:00 12° S visible
25 Jan 8.8 17:46:13 10° W 17:50:30 34° SSW 17:54:48 10° SE visible
26 Jan 9.6 18:12:43 10° W 18:16:11 20° SW 18:19:38 10° S visible
27 Jan 10.3 18:41:05 10° SW 18:41:41 10° SW 18:42:16 10° SW visible
